Time,TemperatureF,DewpointF,PressureIn,WindDirection,WindDirectionDegrees,WindSpeedMPH,WindSpeedGustMPH,Humidity,HourlyPrecipIn,Conditions,Clouds,dailyrainin,SoftwareType,DateUTC
2013-06-18 00:01:00,76.3,71.5,30.09,North,5,5.0,5.0,85,0.00,,,0.00,Wunderground v.1.15,2013-06-18 04:01:00,
2013-06-18 00:05:00,75.9,71.8,30.09,NNE,20,5.0,5.0,87,0.00,,,0.00,Wunderground v.1.15,2013-06-18 04:05:00,
2013-06-18 00:10:00,75.5,71.0,30.09,NNE,13,5.0,8.0,87,0.00,,,0.00,weatherlink.com 1.10,2013-06-18 04:10:00,
2013-06-18 00:15:00,75.2,71.4,30.09,NNE,18,4.0,5.0,88,0.00,,,0.00,Wunderground v.1.15,2013-06-18 04:15:00,
2013-06-18 00:20:00,75.1,71.3,30.09,North,6,4.0,5.0,88,0.00,,,0.00,Wunderground v.1.15,2013-06-18 04:20:00,
2013-06-18 00:26:00,75.1,72.0,30.08,ENE,64,0.0,5.0,89,0.00,,,0.00,weatherlink.com 1.10,2013-06-18 04:26:00,
2013-06-18 00:35:00,75.1,71.6,30.06,NE,41,1.0,2.0,89,0.00,,,0.00,Wunderground v.1.15,2013-06-18 04:35:00,
2013-06-18 00:40:00,75.1,71.6,30.06,NE,54,1.0,2.0,89,0.00,,,0.00,Wunderground v.1.15,2013-06-18 04:40:00,
2013-06-18 00:45:00,75.0,71.2,30.05,NE,54,0.0,0.0,88,0.00,,,0.00,Wunderground v.1.15,2013-06-18 04:45:00,
2013-06-18 00:50:00,75.0,71.2,30.05,NE,54,0.0,0.0,88,0.00,,,0.00,Wunderground v.1.15,2013-06-18 04:50:00,
2013-06-18 00:59:00,74.9,71.0,30.05,ENE,75,0.0,2.0,88,0.00,,,0.00,weatherlink.com 1.10,2013-06-18 04:59:00,
2013-06-18 01:05:00,75.0,71.5,30.05,East,81,0.0,1.0,89,0.00,,,0.00,Wunderground v.1.15,2013-06-18 05:05:00,
2013-06-18 01:10:00,74.9,71.4,30.06,East,81,0.0,0.0,89,0.00,,,0.00,Wunderground v.1.15,2013-06-18 05:10:00,
2013-06-18 01:15:00,75.0,71.9,30.05,East,91,0.0,0.0,90,0.00,,,0.00,Wunderground v.1.15,2013-06-18 05:15:00,
2013-06-18 01:25:00,75.4,72.3,30.06,East,100,1.0,1.0,90,0.00,,,0.00,Wunderground v.1.15,2013-06-18 05:25:00,
2013-06-18 01:30:00,75.5,72.0,30.06,East,100,0.0,0.0,89,0.00,,,0.00,Wunderground v.1.15,2013-06-18 05:30:00,
2013-06-18 01:35:00,75.4,72.3,30.06,East,91,0.0,1.0,90,0.00,,,0.00,Wunderground v.1.15,2013-06-18 05:35:00,
2013-06-18 01:40:00,75.4,72.3,30.06,East,91,0.0,0.0,90,0.00,,,0.00,Wunderground v.1.15,2013-06-18 05:40:00,
2013-06-18 01:45:00,75.2,72.1,30.06,East,91,0.0,0.0,90,0.00,,,0.00,Wunderground v.1.15,2013-06-18 05:45:00,
2013-06-18 01:50:00,75.0,72.2,30.06,East,90,0.0,0.0,91,0.00,,,0.00,Wunderground v.1.15,2013-06-18 05:50:00,
2013-06-18 02:00:00,74.7,71.9,30.05,East,91,0.0,0.0,91,0.00,,,0.00,Wunderground v.1.15,2013-06-18 06:00:00,
2013-06-18 02:05:00,74.7,72.2,30.05,East,81,0.0,0.0,92,0.00,,,0.00,Wunderground v.1.15,2013-06-18 06:05:00,
2013-06-18 02:10:00,74.7,72.2,30.05,East,81,0.0,0.0,92,0.00,,,0.00,Wunderground v.1.15,2013-06-18 06:10:00,
2013-06-18 02:15:00,74.5,71.7,30.05,ENE,73,0.0,0.0,91,0.00,,,0.00,Wunderground v.1.15,2013-06-18 06:15:00,
2013-06-18 02:21:00,74.4,72.0,30.05,ENE,65,0.0,2.0,91,0.00,,,0.00,weatherlink.com 1.10,2013-06-18 06:21:00,
2013-06-18 02:30:00,74.3,71.5,30.05,NE,54,0.0,0.0,91,0.00,,,0.00,Wunderground v.1.15,2013-06-18 06:30:00,
2013-06-18 02:35:00,74.3,71.5,30.05,NE,42,1.0,2.0,91,0.00,,,0.00,Wunderground v.1.15,2013-06-18 06:35:00,
2013-06-18 02:40:00,74.2,71.4,30.05,NE,50,1.0,1.0,91,0.00,,,0.00,Wunderground v.1.15,2013-06-18 06:40:00,
2013-06-18 02:45:00,74.1,71.3,30.04,ENE,60,0.0,1.0,91,0.00,,,0.00,Wunderground v.1.15,2013-06-18 06:45:00,
2013-06-18 02:53:00,74.0,71.0,30.04,ENE,60,0.0,1.0,91,0.00,,,0.00,weatherlink.com 1.10,2013-06-18 06:53:00,
2013-06-18 03:00:00,73.9,71.1,30.05,ENE,60,0.0,0.0,91,0.00,,,0.00,Wunderground v.1.15,2013-06-18 07:00:00,
2013-06-18 03:05:00,73.9,71.4,30.04,ENE,61,0.0,0.0,92,0.00,,,0.00,Wunderground v.1.15,2013-06-18 07:05:00,
2013-06-18 03:10:00,73.9,71.4,30.04,ENE,61,0.0,1.0,92,0.00,,,0.00,Wunderground v.1.15,2013-06-18 07:10:00,
2013-06-18 03:15:00,73.9,71.4,30.04,ENE,60,0.0,1.0,92,0.00,,,0.00,Wunderground v.1.15,2013-06-18 07:15:00,
2013-06-18 03:20:00,73.9,71.4,30.04,ENE,61,0.0,2.0,92,0.00,,,0.00,Wunderground v.1.15,2013-06-18 07:20:00,
2013-06-18 03:26:00,73.9,71.0,30.04,ENE,75,0.0,3.0,92,0.00,,,0.00,weatherlink.com 1.10,2013-06-18 07:26:00,
2013-06-18 03:35:00,74.0,71.8,30.03,ENE,73,0.0,1.0,93,0.00,,,0.00,Wunderground v.1.15,2013-06-18 07:35:00,
2013-06-18 03:40:00,73.9,71.7,30.03,ENE,73,0.0,1.0,93,0.00,,,0.00,Wunderground v.1.15,2013-06-18 07:40:00,
2013-06-18 03:45:00,73.8,71.6,30.02,NE,54,1.0,1.0,93,0.00,,,0.00,Wunderground v.1.15,2013-06-18 07:45:00,
2013-06-18 03:55:00,73.8,71.6,30.02,ENE,61,0.0,0.0,93,0.00,,,0.00,Wunderground v.1.15,2013-06-18 07:55:00,
2013-06-18 04:00:00,73.8,71.6,30.02,ENE,61,0.0,0.0,93,0.00,,,0.00,Wunderground v.1.15,2013-06-18 08:00:00,
2013-06-18 04:05:00,73.9,71.7,30.02,ENE,60,0.0,0.0,93,0.00,,,0.00,Wunderground v.1.15,2013-06-18 08:05:00,
2013-06-18 04:10:00,73.9,71.7,30.02,ENE,60,0.0,0.0,93,0.00,,,0.00,Wunderground v.1.15,2013-06-18 08:10:00,
2013-06-18 04:15:00,73.9,71.7,30.02,ENE,61,0.0,0.0,93,0.00,,,0.00,Wunderground v.1.15,2013-06-18 08:15:00,
2013-06-18 04:25:00,73.6,71.8,30.02,ENE,74,0.0,0.0,94,0.00,,,0.00,Wunderground v.1.15,2013-06-18 08:25:00,
2013-06-18 04:30:00,73.5,71.7,30.02,ENE,73,0.0,0.0,94,0.00,,,0.00,Wunderground v.1.15,2013-06-18 08:30:00,
2013-06-18 04:35:00,73.5,71.7,30.02,ENE,73,0.0,0.0,94,0.00,,,0.00,Wunderground v.1.15,2013-06-18 08:35:00,
2013-06-18 04:45:00,73.3,71.5,30.02,ENE,73,0.0,0.0,94,0.00,,,0.00,Wunderground v.1.15,2013-06-18 08:45:00,
2013-06-18 04:50:00,73.2,71.4,30.02,ENE,74,0.0,0.0,94,0.00,,,0.00,Wunderground v.1.15,2013-06-18 08:50:00,
2013-06-18 04:55:00,73.1,71.6,30.02,ENE,74,0.0,0.0,95,0.00,,,0.00,Wunderground v.1.15,2013-06-18 08:55:00,
2013-06-18 05:00:00,73.2,71.7,30.02,ENE,73,0.0,0.0,95,0.00,,,0.00,Wunderground v.1.15,2013-06-18 09:00:00,
2013-06-18 05:05:00,73.2,71.7,30.02,ENE,74,0.0,0.0,95,0.00,,,0.00,Wunderground v.1.15,2013-06-18 09:05:00,
2013-06-18 05:15:00,73.5,72.3,30.02,ENE,72,0.0,0.0,96,0.00,,,0.00,Wunderground v.1.15,2013-06-18 09:15:00,
2013-06-18 05:20:00,73.5,72.3,30.02,ENE,72,0.0,0.0,96,0.00,,,0.00,Wunderground v.1.15,2013-06-18 09:20:00,
2013-06-18 05:25:00,73.6,72.4,30.03,ENE,72,0.0,0.0,96,0.00,,,0.00,Wunderground v.1.15,2013-06-18 09:25:00,
2013-06-18 05:30:00,73.6,72.4,30.03,ENE,72,0.0,0.0,96,0.00,,,0.00,Wunderground v.1.15,2013-06-18 09:30:00,
2013-06-18 05:37:00,73.7,72.0,30.03,ENE,72,0.0,1.0,96,0.00,,,0.00,weatherlink.com 1.10,2013-06-18 09:37:00,
2013-06-18 05:45:00,73.8,72.9,30.03,ENE,72,0.0,0.0,97,0.00,,,0.00,Wunderground v.1.15,2013-06-18 09:45:00,
2013-06-18 05:50:00,73.9,73.0,30.04,NE,44,1.0,2.0,97,0.00,,,0.00,Wunderground v.1.15,2013-06-18 09:50:00,
2013-06-18 05:55:00,74.1,73.2,30.03,ENE,60,1.0,2.0,97,0.00,,,0.00,Wunderground v.1.15,2013-06-18 09:55:00,
2013-06-18 06:05:00,74.1,72.9,30.04,NE,53,0.0,0.0,96,0.00,,,0.00,Wunderground v.1.15,2013-06-18 10:05:00,
2013-06-18 06:10:00,74.1,72.9,30.04,NE,53,0.0,0.0,96,0.00,,,0.00,Wunderground v.1.15,2013-06-18 10:10:00,
2013-06-18 06:15:00,74.0,72.8,30.04,NE,51,0.0,1.0,96,0.00,,,0.00,Wunderground v.1.15,2013-06-18 10:15:00,
2013-06-18 06:20:00,74.1,72.9,30.04,NE,51,0.0,1.0,96,0.00,,,0.00,Wunderground v.1.15,2013-06-18 10:20:00,
2013-06-18 06:25:00,74.1,72.9,30.04,NE,51,0.0,1.0,96,0.00,,,0.00,Wunderground v.1.15,2013-06-18 10:25:00,
2013-06-18 06:35:00,74.0,72.8,30.04,NE,51,0.0,0.0,96,0.00,,,0.00,Wunderground v.1.15,2013-06-18 10:35:00,
2013-06-18 06:40:00,74.0,72.8,30.04,NE,51,0.0,0.0,96,0.00,,,0.00,Wunderground v.1.15,2013-06-18 10:40:00,
2013-06-18 06:45:00,73.9,72.7,30.04,NE,51,0.0,0.0,96,0.00,,,0.00,Wunderground v.1.15,2013-06-18 10:45:00,
2013-06-18 06:50:00,73.9,72.7,30.04,NE,51,0.0,0.0,96,0.00,,,0.00,Wunderground v.1.15,2013-06-18 10:50:00,
2013-06-18 06:55:00,73.9,73.0,30.05,NE,51,0.0,0.0,97,0.00,,,0.00,Wunderground v.1.15,2013-06-18 10:55:00,
2013-06-18 07:00:00,74.0,73.1,30.05,NE,51,0.0,0.0,97,0.00,,,0.00,Wunderground v.1.15,2013-06-18 11:00:00,
2013-06-18 07:10:00,74.2,73.3,30.05,NE,51,0.0,0.0,97,0.00,,,0.00,Wunderground v.1.15,2013-06-18 11:10:00,
2013-06-18 07:15:00,74.4,73.5,30.06,NE,51,0.0,0.0,97,0.00,,,0.00,Wunderground v.1.15,2013-06-18 11:15:00,
2013-06-18 07:20:00,74.7,73.8,30.06,NE,51,0.0,0.0,97,0.00,,,0.00,Wunderground v.1.15,2013-06-18 11:20:00,
2013-06-18 07:25:00,74.8,73.9,30.06,NE,51,0.0,0.0,97,0.00,,,0.00,Wunderground v.1.15,2013-06-18 11:25:00,
2013-06-18 07:30:00,75.0,73.8,30.06,ENE,63,0.0,0.0,96,0.00,,,0.00,Wunderground v.1.15,2013-06-18 11:30:00,
2013-06-18 07:35:00,75.2,74.0,30.06,ENE,62,0.0,0.0,96,0.00,,,0.00,Wunderground v.1.15,2013-06-18 11:35:00,
2013-06-18 07:45:00,75.7,74.5,30.06,ENE,62,0.0,0.0,96,0.00,,,0.00,Wunderground v.1.15,2013-06-18 11:45:00,
2013-06-18 07:50:00,76.0,74.5,30.06,ENE,63,0.0,0.0,95,0.00,,,0.00,Wunderground v.1.15,2013-06-18 11:50:00,
2013-06-18 07:55:00,76.3,74.8,30.06,ENE,63,0.0,0.0,95,0.00,,,0.00,Wunderground v.1.15,2013-06-18 11:55:00,
2013-06-18 08:00:00,76.8,75.3,30.06,ENE,63,0.0,0.0,95,0.00,,,0.00,Wunderground v.1.15,2013-06-18 12:00:00,
2013-06-18 08:05:00,77.3,75.4,30.07,ENE,62,0.0,0.0,94,0.00,,,0.00,Wunderground v.1.15,2013-06-18 12:05:00,
2013-06-18 08:15:00,78.6,76.4,30.07,ENE,63,0.0,0.0,93,0.00,,,0.00,Wunderground v.1.15,2013-06-18 12:15:00,
2013-06-18 08:20:00,79.1,76.6,30.07,ENE,77,0.0,0.0,92,0.00,,,0.00,Wunderground v.1.15,2013-06-18 12:20:00,
2013-06-18 08:25:00,79.5,76.6,30.07,ENE,78,0.0,0.0,91,0.00,,,0.00,Wunderground v.1.15,2013-06-18 12:25:00,
2013-06-18 08:35:00,80.5,77.0,30.08,NE,51,0.0,0.0,89,0.00,,,0.00,Wunderground v.1.15,2013-06-18 12:35:00,
2013-06-18 08:40:00,81.5,77.3,30.08,NE,47,1.0,1.0,87,0.00,,,0.00,Wunderground v.1.15,2013-06-18 12:40:00,
2013-06-18 08:45:00,82.4,78.1,30.08,East,87,1.0,1.0,87,0.00,,,0.00,Wunderground v.1.15,2013-06-18 12:45:00,
2013-06-18 08:50:00,83.4,77.7,30.08,ENE,71,1.0,1.0,83,0.00,,,0.00,Wunderground v.1.15,2013-06-18 12:50:00,
2013-06-18 09:00:00,84.3,78.2,30.08,NE,42,1.0,2.0,82,0.00,,,0.00,Wunderground v.1.15,2013-06-18 13:00:00,
2013-06-18 09:05:00,84.6,77.0,30.08,North,359,2.0,4.0,78,0.00,,,0.00,Wunderground v.1.15,2013-06-18 13:05:00,
2013-06-18 09:10:00,84.8,77.9,30.08,ENE,60,3.0,3.0,80,0.00,,,0.00,Wunderground v.1.15,2013-06-18 13:10:00,
2013-06-18 09:20:00,85.7,77.3,30.08,NE,46,2.0,2.0,76,0.00,,,0.00,Wunderground v.1.15,2013-06-18 13:20:00,
2013-06-18 09:25:00,85.8,77.8,30.08,NE,54,2.0,2.0,77,0.00,,,0.00,Wunderground v.1.15,2013-06-18 13:25:00,
2013-06-18 09:30:00,86.0,77.1,30.07,North,1,2.0,3.0,75,0.00,,,0.00,Wunderground v.1.15,2013-06-18 13:30:00,
2013-06-18 09:40:00,86.6,78.1,30.07,ENE,58,3.0,3.0,76,0.00,,,0.00,Wunderground v.1.15,2013-06-18 13:40:00,
2013-06-18 09:45:00,86.8,76.7,30.07,NE,55,2.0,3.0,72,0.00,,,0.00,Wunderground v.1.15,2013-06-18 13:45:00,
2013-06-18 09:50:00,86.8,76.7,30.07,NE,49,3.0,3.0,72,0.00,,,0.00,Wunderground v.1.15,2013-06-18 13:50:00,
2013-06-18 09:59:00,86.8,76.0,30.07,NNE,16,4.0,6.0,71,0.00,,,0.00,weatherlink.com 1.10,2013-06-18 13:59:00,
2013-06-18 10:05:00,87.1,76.5,30.07,North,10,3.0,3.0,71,0.00,,,0.00,Wunderground v.1.15,2013-06-18 14:05:00,
2013-06-18 10:10:00,87.3,76.3,30.07,North,360,3.0,4.0,70,0.00,,,0.00,Wunderground v.1.15,2013-06-18 14:10:00,
2013-06-18 10:15:00,87.3,75.9,30.07,North,5,4.0,4.0,69,0.00,,,0.00,Wunderground v.1.15,2013-06-18 14:15:00,
2013-06-18 10:25:00,87.7,76.3,30.07,NNE,28,4.0,4.0,69,0.00,,,0.00,Wunderground v.1.15,2013-06-18 14:25:00,
2013-06-18 10:30:00,87.9,76.5,30.07,NNW,330,4.0,4.0,69,0.00,,,0.00,Wunderground v.1.15,2013-06-18 14:30:00,
2013-06-18 10:35:00,87.7,76.3,30.07,ENE,59,3.0,4.0,69,0.00,,,0.00,Wunderground v.1.15,2013-06-18 14:35:00,
2013-06-18 10:40:00,88.3,76.8,30.07,NNE,23,3.0,3.0,69,0.00,,,0.00,Wunderground v.1.15,2013-06-18 14:40:00,
2013-06-18 10:48:00,88.7,77.0,30.07,NNE,27,2.0,5.0,69,0.00,,,0.00,weatherlink.com 1.10,2013-06-18 14:48:00,
2013-06-18 10:55:00,89.6,77.2,30.07,NNE,22,2.0,3.0,67,0.00,,,0.00,Wunderground v.1.15,2013-06-18 14:55:00,
2013-06-18 11:00:00,89.3,77.3,30.07,ENE,63,2.0,2.0,68,0.00,,,0.00,Wunderground v.1.15,2013-06-18 15:00:00,
2013-06-18 11:05:00,89.1,76.7,30.07,NNE,33,2.0,3.0,67,0.00,,,0.00,Wunderground v.1.15,2013-06-18 15:05:00,
2013-06-18 11:15:00,89.2,76.8,30.07,NNE,29,2.0,2.0,67,0.00,,,0.00,Wunderground v.1.15,2013-06-18 15:15:00,
2013-06-18 11:20:00,89.0,77.1,30.07,East,94,2.0,2.0,68,0.00,,,0.00,Wunderground v.1.15,2013-06-18 15:20:00,
2013-06-18 11:25:00,89.6,79.4,30.07,ENE,74,2.0,2.0,72,0.00,,,0.00,Wunderground v.1.15,2013-06-18 15:25:00,
2013-06-18 11:30:00,90.5,77.6,30.07,NE,36,2.0,3.0,66,0.00,,,0.00,Wunderground v.1.15,2013-06-18 15:30:00,
2013-06-18 11:35:00,91.3,77.4,30.07,NNE,18,2.0,3.0,64,0.00,,,0.00,Wunderground v.1.15,2013-06-18 15:35:00,
2013-06-18 11:45:00,91.7,78.3,30.07,NE,47,2.0,2.0,65,0.00,,,0.00,Wunderground v.1.15,2013-06-18 15:45:00,
2013-06-18 11:50:00,91.8,79.3,30.07,East,92,2.0,2.0,67,0.00,,,0.00,Wunderground v.1.15,2013-06-18 15:50:00,
2013-06-18 11:55:00,92.4,79.4,30.07,East,80,1.0,2.0,66,0.00,,,0.00,Wunderground v.1.15,2013-06-18 15:55:00,
2013-06-18 12:00:00,92.1,76.7,30.07,NNE,27,1.0,3.0,61,0.00,,,0.00,Wunderground v.1.15,2013-06-18 16:00:00,
2013-06-18 12:10:00,91.9,76.0,30.07,ENE,57,2.0,2.0,60,0.00,,,0.00,Wunderground v.1.15,2013-06-18 16:10:00,
2013-06-18 12:15:00,91.8,78.4,30.07,NE,34,1.0,2.0,65,0.00,,,0.00,Wunderground v.1.15,2013-06-18 16:15:00,
2013-06-18 12:20:00,92.1,78.2,30.07,East,92,1.0,1.0,64,0.00,,,0.00,Wunderground v.1.15,2013-06-18 16:20:00,
2013-06-18 12:25:00,91.9,77.5,30.07,East,82,1.0,1.0,63,0.00,,,0.00,Wunderground v.1.15,2013-06-18 16:25:00,
2013-06-18 12:30:00,91.5,77.1,30.07,ENE,78,1.0,1.0,63,0.00,,,0.00,Wunderground v.1.15,2013-06-18 16:30:00,
2013-06-18 12:40:00,93.0,75.5,30.07,NE,44,2.0,2.0,57,0.00,,,0.00,Wunderground v.1.15,2013-06-18 16:40:00,
2013-06-18 12:45:00,92.8,76.9,30.07,NE,34,3.0,3.0,60,0.00,,,0.00,Wunderground v.1.15,2013-06-18 16:45:00,
2013-06-18 12:55:00,92.3,76.4,30.06,NE,43,1.0,3.0,60,0.00,,,0.00,Wunderground v.1.15,2013-06-18 16:55:00,
2013-06-18 13:00:00,92.6,76.2,30.06,ESE,103,1.0,2.0,59,0.00,,,0.00,Wunderground v.1.15,2013-06-18 17:00:00,
2013-06-18 13:05:00,92.4,76.0,30.06,East,86,1.0,2.0,59,0.00,,,0.00,Wunderground v.1.15,2013-06-18 17:05:00,
2013-06-18 13:10:00,93.0,75.0,30.06,North,352,1.0,1.0,56,0.00,,,0.00,Wunderground v.1.15,2013-06-18 17:10:00,
2013-06-18 13:16:00,92.8,76.0,30.05,North,8,9.0,9.0,58,0.00,,,0.00,weatherlink.com 1.10,2013-06-18 17:16:00,
2013-06-18 13:25:00,93.2,74.6,30.05,East,85,3.0,5.0,55,0.00,,,0.00,Wunderground v.1.15,2013-06-18 17:25:00,
2013-06-18 13:30:00,93.6,75.5,30.05,NE,36,2.0,2.0,56,0.00,,,0.00,Wunderground v.1.15,2013-06-18 17:30:00,
2013-06-18 13:40:00,94.1,74.9,30.05,NNE,19,3.0,3.0,54,0.00,,,0.00,Wunderground v.1.15,2013-06-18 17:40:00,
2013-06-18 13:45:00,94.1,74.4,30.04,NE,49,3.0,3.0,53,0.00,,,0.00,Wunderground v.1.15,2013-06-18 17:45:00,
2013-06-18 13:50:00,94.1,74.9,30.04,ENE,62,2.0,2.0,54,0.00,,,0.00,Wunderground v.1.15,2013-06-18 17:50:00,
2013-06-18 13:55:00,94.3,76.2,30.04,NE,53,2.0,2.0,56,0.00,,,0.00,Wunderground v.1.15,2013-06-18 17:55:00,
2013-06-18 14:00:00,94.9,75.7,30.04,NE,47,2.0,2.0,54,0.00,,,0.00,Wunderground v.1.15,2013-06-18 18:00:00,
2013-06-18 14:05:00,95.2,78.0,30.04,East,80,0.0,4.0,57,0.00,,,0.00,weatherlink.com 1.10,2013-06-18 18:05:00,
2013-06-18 14:15:00,95.5,74.5,30.03,ENE,57,2.0,4.0,51,0.00,,,0.00,Wunderground v.1.15,2013-06-18 18:15:00,
2013-06-18 14:22:00,96.0,76.0,30.03,ENE,61,0.0,3.0,53,0.00,,,0.00,weatherlink.com 1.10,2013-06-18 18:22:00,
2013-06-18 14:30:00,96.2,74.5,30.02,ENE,62,1.0,1.0,50,0.00,,,0.00,Wunderground v.1.15,2013-06-18 18:30:00,
2013-06-18 14:35:00,95.7,75.8,30.02,NNE,27,2.0,4.0,53,0.00,,,0.00,Wunderground v.1.15,2013-06-18 18:35:00,
2013-06-18 14:40:00,94.5,73.6,30.02,NE,51,3.0,3.0,51,0.00,,,0.00,Wunderground v.1.15,2013-06-18 18:40:00,
2013-06-18 14:45:00,94.2,75.6,30.02,East,81,2.0,3.0,55,0.00,,,0.00,Wunderground v.1.15,2013-06-18 18:45:00,
2013-06-18 14:54:00,94.8,76.0,30.02,ENE,61,1.0,5.0,54,0.00,,,0.00,weatherlink.com 1.10,2013-06-18 18:54:00,
2013-06-18 15:00:00,95.4,76.1,30.01,NE,37,1.0,1.0,54,0.00,,,0.00,Wunderground v.1.15,2013-06-18 19:00:00,
2013-06-18 15:05:00,95.5,73.9,30.01,North,6,2.0,5.0,50,0.00,,,0.00,Wunderground v.1.15,2013-06-18 19:05:00,
2013-06-18 15:10:00,95.4,75.0,30.01,ENE,57,2.0,2.0,52,0.00,,,0.00,Wunderground v.1.15,2013-06-18 19:10:00,
2013-06-18 15:20:00,95.5,74.5,30.01,East,89,1.0,1.0,51,0.00,,,0.00,Wunderground v.1.15,2013-06-18 19:20:00,
2013-06-18 15:25:00,95.8,74.8,30.01,NE,54,1.0,2.0,51,0.00,,,0.00,Wunderground v.1.15,2013-06-18 19:25:00,
2013-06-18 15:30:00,95.5,72.7,30.00,ENE,70,2.0,2.0,48,0.00,,,0.00,Wunderground v.1.15,2013-06-18 19:30:00,
2013-06-18 15:35:00,95.2,73.0,30.00,NNE,18,2.0,4.0,49,0.00,,,0.00,Wunderground v.1.15,2013-06-18 19:35:00,
2013-06-18 15:44:00,95.3,75.0,30.00,ENE,75,0.0,6.0,53,0.00,,,0.00,weatherlink.com 1.10,2013-06-18 19:44:00,
2013-06-18 15:50:00,95.2,73.6,30.00,North,352,1.0,3.0,50,0.00,,,0.00,Wunderground v.1.15,2013-06-18 19:50:00,
2013-06-18 15:55:00,95.2,75.4,30.00,NE,53,1.0,3.0,53,0.00,,,0.00,Wunderground v.1.15,2013-06-18 19:55:00,
2013-06-18 16:00:00,95.1,73.5,29.99,ENE,59,2.0,2.0,50,0.00,,,0.00,Wunderground v.1.15,2013-06-18 20:00:00,
2013-06-18 16:10:00,95.3,74.9,29.99,ESE,111,1.0,3.0,52,0.00,,,0.00,Wunderground v.1.15,2013-06-18 20:10:00,
2013-06-18 16:15:00,94.9,74.5,29.99,NE,36,2.0,3.0,52,0.00,,,0.00,Wunderground v.1.15,2013-06-18 20:15:00,
2013-06-18 16:20:00,94.7,74.9,29.98,ENE,74,2.0,2.0,53,0.00,,,0.00,Wunderground v.1.15,2013-06-18 20:20:00,
2013-06-18 16:30:00,94.8,72.7,29.98,ENE,63,1.0,1.0,49,0.00,,,0.00,Wunderground v.1.15,2013-06-18 20:30:00,
2013-06-18 16:35:00,94.2,72.7,29.98,East,81,1.0,1.0,50,0.00,,,0.00,Wunderground v.1.15,2013-06-18 20:35:00,
2013-06-18 16:40:00,93.7,73.4,29.98,ESE,104,0.0,0.0,52,0.00,,,0.00,Wunderground v.1.15,2013-06-18 20:40:00,
2013-06-18 16:45:00,93.3,73.0,29.98,ENE,75,0.0,0.0,52,0.00,,,0.00,Wunderground v.1.15,2013-06-18 20:45:00,
2013-06-18 16:55:00,93.3,75.3,29.98,East,91,2.0,4.0,56,0.00,,,0.00,Wunderground v.1.15,2013-06-18 20:55:00,
2013-06-18 17:00:00,93.2,75.7,29.98,East,84,1.0,1.0,57,0.00,,,0.00,Wunderground v.1.15,2013-06-18 21:00:00,
2013-06-18 17:05:00,93.3,74.2,29.97,ESE,107,2.0,2.0,54,0.00,,,0.00,Wunderground v.1.15,2013-06-18 21:05:00,
2013-06-18 17:10:00,93.4,75.9,29.97,East,96,2.0,2.0,57,0.00,,,0.00,Wunderground v.1.15,2013-06-18 21:10:00,
2013-06-18 17:15:00,93.5,74.9,29.97,North,356,1.0,4.0,55,0.00,,,0.00,Wunderground v.1.15,2013-06-18 21:15:00,
2013-06-18 17:22:00,93.1,75.0,29.98,NNE,23,4.0,5.0,55,0.00,,,0.00,weatherlink.com 1.10,2013-06-18 21:22:00,
2013-06-18 17:30:00,92.1,75.7,29.97,ENE,66,1.0,1.0,59,0.00,,,0.00,Wunderground v.1.15,2013-06-18 21:30:00,
2013-06-18 17:35:00,92.2,76.3,29.97,ESE,114,0.0,1.0,60,0.00,,,0.00,Wunderground v.1.15,2013-06-18 21:35:00,
2013-06-18 17:40:00,92.0,75.6,29.97,NE,49,1.0,2.0,59,0.00,,,0.00,Wunderground v.1.15,2013-06-18 21:40:00,
2013-06-18 17:50:00,90.8,74.0,29.97,NE,53,3.0,3.0,58,0.00,,,0.00,Wunderground v.1.15,2013-06-18 21:50:00,
2013-06-18 17:55:00,90.2,73.4,29.97,NE,55,2.0,3.0,58,0.00,,,0.00,Wunderground v.1.15,2013-06-18 21:55:00,
2013-06-18 18:05:00,89.3,74.6,29.97,ENE,73,0.0,0.0,62,0.00,,,0.00,Wunderground v.1.15,2013-06-18 22:05:00,
2013-06-18 18:10:00,88.7,77.7,29.98,ESE,103,1.0,8.0,70,0.00,,,0.00,Wunderground v.1.15,2013-06-18 22:10:00,
2013-06-18 18:20:00,87.3,75.9,29.98,ESE,105,4.0,4.0,69,0.00,,,0.00,Wunderground v.1.15,2013-06-18 22:20:00,
2013-06-18 18:25:00,86.8,75.8,29.99,ESE,106,4.0,4.0,70,0.00,,,0.00,Wunderground v.1.15,2013-06-18 22:25:00,
2013-06-18 18:30:00,86.2,75.7,29.98,ESE,104,3.0,4.0,71,0.00,,,0.00,Wunderground v.1.15,2013-06-18 22:30:00,
2013-06-18 18:35:00,86.0,76.7,29.98,ESE,107,4.0,5.0,74,0.00,,,0.00,Wunderground v.1.15,2013-06-18 22:35:00,
2013-06-18 18:40:00,85.7,75.6,29.99,ESE,103,4.0,5.0,72,0.00,,,0.00,Wunderground v.1.15,2013-06-18 22:40:00,
2013-06-18 18:50:00,85.1,75.5,29.98,ESE,104,2.0,3.0,73,0.00,,,0.00,Wunderground v.1.15,2013-06-18 22:50:00,
2013-06-18 18:55:00,84.9,75.3,29.99,East,99,2.0,2.0,73,0.00,,,0.00,Wunderground v.1.15,2013-06-18 22:55:00,
2013-06-18 19:00:00,84.7,75.1,29.97,ESE,108,2.0,2.0,73,0.00,,,0.00,Wunderground v.1.15,2013-06-18 23:00:00,
2013-06-18 19:05:00,84.5,75.7,29.97,ESE,103,1.0,2.0,75,0.00,,,0.00,Wunderground v.1.15,2013-06-18 23:05:00,
2013-06-18 19:15:00,84.5,75.7,29.98,ESE,110,3.0,4.0,75,0.00,,,0.00,Wunderground v.1.15,2013-06-18 23:15:00,
2013-06-18 19:20:00,84.3,75.9,29.98,ESE,105,4.0,4.0,76,0.00,,,0.00,Wunderground v.1.15,2013-06-18 23:20:00,
2013-06-18 19:25:00,83.7,75.7,29.98,ESE,108,4.0,4.0,77,0.00,,,0.00,Wunderground v.1.15,2013-06-18 23:25:00,
2013-06-18 19:30:00,83.5,75.5,29.99,East,101,4.0,4.0,77,0.00,,,0.00,Wunderground v.1.15,2013-06-18 23:30:00,
2013-06-18 19:40:00,83.5,75.1,29.98,ESE,103,2.0,2.0,76,0.00,,,0.00,Wunderground v.1.15,2013-06-18 23:40:00,
2013-06-18 19:45:00,83.6,75.2,29.98,ESE,103,1.0,2.0,76,0.00,,,0.00,Wunderground v.1.15,2013-06-18 23:45:00,
2013-06-18 19:50:00,83.8,75.4,29.98,ESE,103,0.0,0.0,76,0.00,,,0.00,Wunderground v.1.15,2013-06-18 23:50:00,
2013-06-18 19:55:00,83.9,75.5,29.98,ENE,71,0.0,0.0,76,0.00,,,0.00,Wunderground v.1.15,2013-06-18 23:55:00,
2013-06-18 20:00:00,84.0,75.6,29.99,ESE,102,1.0,1.0,76,0.00,,,0.00,Wunderground v.1.15,2013-06-19 00:00:00,
2013-06-18 20:06:00,84.0,75.0,29.98,East,101,0.0,3.0,74,0.00,,,0.00,weatherlink.com 1.10,2013-06-19 00:06:00,
2013-06-18 20:15:00,83.9,74.7,29.99,East,100,0.0,0.0,74,0.00,,,0.00,Wunderground v.1.15,2013-06-19 00:15:00,
2013-06-18 20:20:00,83.7,74.5,29.99,ENE,73,0.0,0.0,74,0.00,,,0.00,Wunderground v.1.15,2013-06-19 00:20:00,
2013-06-18 20:25:00,83.6,74.4,29.99,ENE,75,0.0,0.0,74,0.00,,,0.00,Wunderground v.1.15,2013-06-19 00:25:00,
2013-06-18 20:35:00,83.0,74.3,30.00,ENE,75,0.0,0.0,75,0.00,,,0.00,Wunderground v.1.15,2013-06-19 00:35:00,
2013-06-18 20:40:00,82.7,74.4,30.00,ENE,75,0.0,0.0,76,0.00,,,0.00,Wunderground v.1.15,2013-06-19 00:40:00,
2013-06-18 20:45:00,82.3,74.4,30.00,ENE,75,0.0,0.0,77,0.00,,,0.00,Wunderground v.1.15,2013-06-19 00:45:00,
2013-06-18 20:50:00,82.0,74.5,30.00,ENE,75,0.0,0.0,78,0.00,,,0.00,Wunderground v.1.15,2013-06-19 00:50:00,
2013-06-18 20:55:00,81.8,74.6,30.00,ENE,75,0.0,0.0,79,0.00,,,0.00,Wunderground v.1.15,2013-06-19 00:55:00,
2013-06-18 21:05:00,81.6,74.8,30.00,East,82,0.0,0.0,80,0.00,,,0.00,Wunderground v.1.15,2013-06-19 01:05:00,
2013-06-18 21:10:00,81.4,74.6,30.00,East,82,0.0,0.0,80,0.00,,,0.00,Wunderground v.1.15,2013-06-19 01:10:00,
2013-06-18 21:15:00,81.2,74.8,30.00,East,82,0.0,0.0,81,0.00,,,0.00,Wunderground v.1.15,2013-06-19 01:15:00,
2013-06-18 21:20:00,81.0,74.6,30.00,East,82,0.0,0.0,81,0.00,,,0.00,Wunderground v.1.15,2013-06-19 01:20:00,
2013-06-18 21:27:00,80.8,74.0,30.00,East,82,0.0,0.0,81,0.00,,,0.00,weatherlink.com 1.10,2013-06-19 01:27:00,
2013-06-18 21:35:00,80.7,74.7,30.00,East,82,0.0,0.0,82,0.00,,,0.00,Wunderground v.1.15,2013-06-19 01:35:00,
2013-06-18 21:40:00,80.6,74.6,30.00,East,82,0.0,0.0,82,0.00,,,0.00,Wunderground v.1.15,2013-06-19 01:40:00,
2013-06-18 21:45:00,80.4,74.8,30.01,East,89,0.0,0.0,83,0.00,,,0.00,Wunderground v.1.15,2013-06-19 01:45:00,
2013-06-18 21:50:00,80.2,74.9,30.01,East,91,0.0,0.0,84,0.00,,,0.00,Wunderground v.1.15,2013-06-19 01:50:00,
2013-06-18 21:55:00,79.9,74.6,30.01,East,92,0.0,0.0,84,0.00,,,0.00,Wunderground v.1.15,2013-06-19 01:55:00,
2013-06-18 22:05:00,79.5,74.6,30.01,East,91,0.0,1.0,85,0.00,,,0.00,Wunderground v.1.15,2013-06-19 02:05:00,
2013-06-18 22:10:00,79.4,74.8,30.01,East,91,0.0,0.0,86,0.00,,,0.00,Wunderground v.1.15,2013-06-19 02:10:00,
2013-06-18 22:15:00,79.3,74.7,30.01,East,93,0.0,0.0,86,0.00,,,0.00,Wunderground v.1.15,2013-06-19 02:15:00,
2013-06-18 22:20:00,79.1,74.9,30.01,East,94,0.0,0.0,87,0.00,,,0.00,Wunderground v.1.15,2013-06-19 02:20:00,
2013-06-18 22:25:00,79.0,74.5,30.01,East,96,1.0,1.0,86,0.00,,,0.00,Wunderground v.1.15,2013-06-19 02:25:00,
2013-06-18 22:30:00,79.0,74.5,30.02,East,96,0.0,0.0,86,0.00,,,0.00,Wunderground v.1.15,2013-06-19 02:30:00,
2013-06-18 22:35:00,79.0,74.5,30.02,East,96,0.0,1.0,86,0.00,,,0.00,Wunderground v.1.15,2013-06-19 02:35:00,
2013-06-18 22:45:00,78.9,74.4,30.02,East,96,0.0,0.0,86,0.00,,,0.00,Wunderground v.1.15,2013-06-19 02:45:00,
2013-06-18 22:50:00,79.0,74.5,30.02,East,96,0.0,0.0,86,0.00,,,0.00,Wunderground v.1.15,2013-06-19 02:50:00,
2013-06-18 22:55:00,79.1,74.2,30.03,East,99,0.0,0.0,85,0.00,,,0.00,Wunderground v.1.15,2013-06-19 02:55:00,
2013-06-18 23:00:00,79.0,74.1,30.03,East,98,0.0,0.0,85,0.00,,,0.00,Wunderground v.1.15,2013-06-19 03:00:00,
2013-06-18 23:05:00,79.0,74.8,30.04,East,98,0.0,1.0,87,0.00,,,0.00,Wunderground v.1.15,2013-06-19 03:05:00,
2013-06-18 23:10:00,78.9,74.7,30.04,NE,50,0.0,2.0,87,0.00,,,0.00,Wunderground v.1.15,2013-06-19 03:10:00,
2013-06-18 23:20:00,79.7,74.8,30.04,ESE,110,2.0,2.0,85,0.00,,,0.00,Wunderground v.1.15,2013-06-19 03:20:00,
2013-06-18 23:25:00,79.9,74.6,30.04,ESE,110,1.0,2.0,84,0.00,,,0.00,Wunderground v.1.15,2013-06-19 03:25:00,
2013-06-18 23:30:00,79.8,74.9,30.04,East,98,0.0,0.0,85,0.00,,,0.00,Wunderground v.1.15,2013-06-19 03:30:00,
2013-06-18 23:35:00,79.7,74.8,30.04,East,96,0.0,0.0,85,0.00,,,0.00,Wunderground v.1.15,2013-06-19 03:35:00,
2013-06-18 23:40:00,79.5,74.9,30.04,East,96,0.0,0.0,86,0.00,,,0.00,Wunderground v.1.15,2013-06-19 03:40:00,
2013-06-18 23:45:00,79.3,74.7,30.04,East,96,0.0,0.0,86,0.00,,,0.00,Wunderground v.1.15,2013-06-19 03:45:00,
2013-06-18 23:53:00,79.0,74.0,30.03,East,96,0.0,0.0,86,0.00,,,0.00,weatherlink.com 1.10,2013-06-19 03:53:00,